Alva, OK

4:17 AM CDT on April 24, 2018 (GMT -0500)
Alva Regional

Weather History for KAVK - June, 2014

Change the Weather History Date:

Saturday, June 21, 2014

  Actual Average Record
Temperature  
Mean Temperature 78 °F -  
Max Temperature 93 °F 92 °F 109 °F (1953)
Min Temperature 64 °F 66 °F 53 °F (1961)
Cooling Degree Days 14    
Growing Degree Days 28 (Base 50)    
Moisture  
Dew Point 64 °F    
Average Humidity 60    
Maximum Humidity 94    
Minimum Humidity 36    
Precipitation  
Precipitation 0.00 in - - ()
Sea Level Pressure  
Sea Level Pressure 29.94 in    
Wind  
Wind Speed 13 mph (SSW)    
Max Wind Speed 21 mph    
Max Gust Speed 29 mph    
Visibility 10 miles    
Events      
Averages and records for this station are not official NWS values.
T = Trace of Precipitation, MM = Missing Value Source: NWS Daily Summary

Daily Weather History Graph

Daily Weather History Graph

Search for Another Location

Airport or City:

Astronomy

Jun. 21, 2014 Rise Set
Actual Time 6:16 AM CDT 8:56 PM CDT
Civil Twilight 5:45 AM CDT 9:27 PM CDT
Nautical Twilight 5:07 AM CDT 10:06 PM CDT
Astronomical Twilight 4:24 AM CDT 10:49 PM CDT
Moon 2:22 AM CDT (6/21) 3:43 PM CDT (6/21)
Length of Visible Light 15h 42m
Length of Day
14h 40m
Waning Crescent, 30% of the Moon is Illuminated
Jun 21
Waning Crescent
Jun 27
New
Jul 5
First Quarter
Jul 12
Full
Jul 18
Last Quarter

Hourly Weather History & Observations

Time (CDT) Temp. Heat Index Dew Point Humidity Pressure Visibility Wind Dir Wind Speed Gust Speed Precip Events Conditions
12:10 AM 75.2 °F - 64.4 °F 69% 29.97 in 10.0 mi South 13.8 mph - N/A   Clear
12:30 AM 73.4 °F - 64.4 °F 73% 29.97 in 10.0 mi South 12.7 mph - N/A   Clear
12:50 AM 73.4 °F - 64.4 °F 73% 29.97 in 10.0 mi South 10.4 mph - N/A   Clear
1:10 AM 71.6 °F - 64.4 °F 78% 29.98 in 10.0 mi South 9.2 mph - N/A   Clear
1:30 AM 71.6 °F - 64.4 °F 78% 29.98 in 10.0 mi South 9.2 mph - N/A   Clear
1:50 AM 69.8 °F - 64.4 °F 83% 29.98 in 10.0 mi South 9.2 mph - N/A   Clear
2:30 AM 68.0 °F - 64.4 °F 88% 29.97 in 10.0 mi South 8.1 mph - N/A   Partly Cloudy
2:50 AM 68.0 °F - 62.6 °F 83% 29.97 in 10.0 mi South 10.4 mph - N/A   Clear
3:30 AM 68.0 °F - 62.6 °F 83% 29.97 in 10.0 mi South 9.2 mph - N/A   Partly Cloudy
3:50 AM 66.2 °F - 62.6 °F 88% 29.97 in 10.0 mi SSE 6.9 mph - N/A   Partly Cloudy
4:10 AM 66.2 °F - 62.6 °F 88% 29.98 in 10.0 mi SSE 6.9 mph - N/A   Partly Cloudy
4:30 AM 66.2 °F - 62.6 °F 88% 29.98 in 10.0 mi South 11.5 mph - N/A   Partly Cloudy
5:15 AM 64.4 °F - 62.6 °F 94% 29.99 in 10.0 mi South 9.2 mph - N/A   Partly Cloudy
5:30 AM 64.4 °F - 62.6 °F 94% 29.99 in 10.0 mi South 6.9 mph - N/A   Mostly Cloudy
5:50 AM 64.4 °F - 62.6 °F 94% 29.99 in 10.0 mi SSE 6.9 mph - N/A   Scattered Clouds
6:10 AM 64.4 °F - 62.6 °F 94% 30.00 in 10.0 mi SSE 9.2 mph - N/A   Partly Cloudy
6:30 AM 64.4 °F - 62.6 °F 94% 30.00 in 10.0 mi South 8.1 mph - N/A   Clear
6:50 AM 64.4 °F - 62.6 °F 94% 30.01 in 10.0 mi South 6.9 mph - N/A   Clear
7:10 AM 66.2 °F - 64.4 °F 94% 30.01 in 10.0 mi SSE 5.8 mph - N/A   Clear
7:30 AM 68.0 °F - 64.4 °F 88% 30.01 in 10.0 mi South 5.8 mph - N/A   Clear
7:50 AM 71.6 °F - 64.4 °F 78% 30.01 in 10.0 mi South 8.1 mph - N/A   Clear
8:10 AM 73.4 °F - 64.4 °F 73% 30.02 in 10.0 mi SSW 8.1 mph - N/A   Clear
8:30 AM 75.2 °F - 64.4 °F 69% 30.02 in 10.0 mi SSW 9.2 mph - N/A   Clear
8:50 AM 77.0 °F - 64.4 °F 65% 30.02 in 10.0 mi SSW 10.4 mph - N/A   Clear
9:10 AM 80.6 °F 82.3 °F 64.4 °F 58% 30.02 in 10.0 mi SW 16.1 mph - N/A   Clear
9:30 AM 80.6 °F 82.3 °F 64.4 °F 58% 30.01 in 10.0 mi SW 18.4 mph 24.2 mph N/A   Clear
9:50 AM 82.4 °F 83.9 °F 64.4 °F 54% 30.00 in 10.0 mi SW 19.6 mph 25.3 mph N/A   Clear
10:10 AM 82.4 °F 83.9 °F 64.4 °F 54% 30.00 in 10.0 mi SW 20.7 mph 26.5 mph N/A   Clear
10:30 AM 84.2 °F 85.6 °F 64.4 °F 51% 29.99 in 10.0 mi SW 18.4 mph 24.2 mph N/A   Clear
10:50 AM 86.0 °F 87.3 °F 64.4 °F 48% 29.99 in 10.0 mi SW 18.4 mph 24.2 mph N/A   Clear
11:15 AM 86.0 °F 87.3 °F 64.4 °F 48% 29.99 in 10.0 mi SSW 16.1 mph 23.0 mph N/A   Clear
11:30 AM 86.0 °F 87.3 °F 64.4 °F 48% 29.98 in 10.0 mi SW 17.3 mph 24.2 mph N/A   Clear
11:50 AM 87.8 °F 89.4 °F 64.4 °F 46% 29.97 in 10.0 mi SW 20.7 mph 26.5 mph N/A   Clear
12:10 PM 87.8 °F 89.4 °F 64.4 °F 46% 29.97 in 10.0 mi SW 17.3 mph 24.2 mph N/A   Clear
12:30 PM 89.6 °F 91.1 °F 64.4 °F 43% 29.96 in 10.0 mi SSW 15.0 mph 24.2 mph N/A   Partly Cloudy
12:50 PM 89.6 °F 91.1 °F 64.4 °F 43% 29.96 in 10.0 mi SSW 15.0 mph 26.5 mph N/A   Scattered Clouds
1:10 PM 87.8 °F 88.5 °F 62.6 °F 43% 29.95 in 10.0 mi SSW 19.6 mph 26.5 mph N/A   Mostly Cloudy
1:30 PM 89.6 °F 91.1 °F 64.4 °F 43% 29.94 in 10.0 mi SW 17.3 mph 23.0 mph N/A   Partly Cloudy
1:50 PM 91.4 °F 93.2 °F 64.4 °F 41% 29.94 in 10.0 mi SSW 17.3 mph 21.9 mph N/A   Partly Cloudy
2:10 PM 91.4 °F 92.1 °F 62.6 °F 38% 29.93 in 10.0 mi SSW 13.8 mph 24.2 mph N/A   Scattered Clouds
2:30 PM 91.4 °F 92.1 °F 62.6 °F 38% 29.92 in 10.0 mi SW 17.3 mph 23.0 mph N/A   Partly Cloudy
2:50 PM 91.4 °F 92.1 °F 62.6 °F 38% 29.91 in 10.0 mi SW 17.3 mph 21.9 mph N/A   Scattered Clouds
3:30 PM 93.2 °F 94.1 °F 62.6 °F 36% 29.90 in 10.0 mi SSW 13.8 mph 23.0 mph N/A   Partly Cloudy
3:50 PM 91.4 °F 92.1 °F 62.6 °F 38% 29.89 in 10.0 mi SSW 20.7 mph 25.3 mph N/A   Partly Cloudy
4:10 PM 93.2 °F 94.1 °F 62.6 °F 36% 29.88 in 10.0 mi South 17.3 mph 25.3 mph N/A   Scattered Clouds
4:30 PM 93.2 °F 94.1 °F 62.6 °F 36% 29.87 in 10.0 mi South 20.7 mph 25.3 mph N/A   Clear
4:50 PM 93.2 °F 94.1 °F 62.6 °F 36% 29.86 in 10.0 mi SSW 20.7 mph 26.5 mph N/A   Scattered Clouds
5:10 PM 93.2 °F 94.1 °F 62.6 °F 36% 29.86 in 10.0 mi SSW 16.1 mph 24.2 mph N/A   Partly Cloudy
5:30 PM 93.2 °F 94.1 °F 62.6 °F 36% 29.86 in 10.0 mi SSW 12.7 mph 23.0 mph N/A   Partly Cloudy
5:50 PM 93.2 °F 94.1 °F 62.6 °F 36% 29.85 in 10.0 mi SSW 17.3 mph 24.2 mph N/A   Clear
6:10 PM 91.4 °F 92.1 °F 62.6 °F 38% 29.84 in 10.0 mi SSW 19.6 mph - N/A   Partly Cloudy
6:35 PM 91.4 °F 92.1 °F 62.6 °F 38% 29.84 in 10.0 mi SSW 18.4 mph 23.0 mph N/A   Partly Cloudy
6:50 PM 91.4 °F 92.1 °F 62.6 °F 38% 29.84 in 10.0 mi South 18.4 mph 26.5 mph N/A   Mostly Cloudy
7:10 PM 91.4 °F 93.2 °F 64.4 °F 41% 29.83 in 10.0 mi South 19.6 mph 27.6 mph N/A   Mostly Cloudy
7:30 PM 89.6 °F 90.1 °F 62.6 °F 40% 29.85 in 10.0 mi South 18.4 mph 28.8 mph N/A   Partly Cloudy
7:50 PM 89.6 °F 91.1 °F 64.4 °F 43% 29.86 in 10.0 mi South 17.3 mph 27.6 mph N/A   Partly Cloudy
8:10 PM 86.0 °F 87.3 °F 64.4 °F 48% 29.87 in 10.0 mi South 19.6 mph 23.0 mph N/A   Mostly Cloudy
8:30 PM 84.2 °F 86.6 °F 66.2 °F 55% 29.87 in 10.0 mi South 13.8 mph - N/A   Mostly Cloudy
8:50 PM 82.4 °F 83.9 °F 64.4 °F 54% 29.87 in 10.0 mi South 16.1 mph - N/A   Partly Cloudy
9:10 PM 82.4 °F 83.9 °F 64.4 °F 54% 29.88 in 10.0 mi South 12.7 mph - N/A   Clear
9:30 PM 80.6 °F 82.3 °F 64.4 °F 58% 29.87 in 10.0 mi South 11.5 mph - N/A   Clear
9:50 PM 80.6 °F 82.3 °F 64.4 °F 58% 29.87 in 10.0 mi South 11.5 mph - N/A   Clear
10:10 PM 78.8 °F - 64.4 °F 61% 29.87 in 10.0 mi South 11.5 mph - N/A   Clear
10:30 PM 77.0 °F - 64.4 °F 65% 29.88 in 10.0 mi South 12.7 mph - N/A   Clear
10:50 PM 77.0 °F - 64.4 °F 65% 29.88 in 10.0 mi South 11.5 mph - N/A   Clear
11:10 PM 77.0 °F - 64.4 °F 65% 29.89 in 10.0 mi South 11.5 mph - N/A   Clear
11:30 PM 75.2 °F - 64.4 °F 69% 29.88 in 10.0 mi South 13.8 mph - N/A   Clear
11:50 PM 75.2 °F - 66.2 °F 73% 29.87 in 10.0 mi South 13.8 mph - N/A   Clear